Main page
METAR-TAF:

METAR-TAF

Airports :

Boca Raton Airport

Boca Raton, Florida, United States

latitude: 26-22-43N, longitude: 080-06-28W, elevation: 13 ft

Current weather observation

The report was made 2 hours and 2 minutes ago, at 02:47 UTC
Wind 8 mph from the East/Southeast
Temperature 81°F
Humidity 74%
Pressure 29.99 in. Hg
Visibility: 10 miles
Scattered clouds at a height of 2000 ft
Broken clouds at a height of 3000 ft

METAR: KBCT 240247Z 11007KT 10SM SCT020 BKN030 27/22 A2999 RMK LAST

Time: 00:49 (04:49 UTC)


TAF: missing

Weather observations and forecasts of more than 4000 airports (METAR and TAF reports).

The available stations are represented by yellow and red dots on the map.

Hover mouse over dot to see the name of the station.

Then click to see weather observations and forecasts.

To change the map : click on the green buttons with a black cross to zoom in, on the green button with a dash to zoom out, or on the green arrows for adjacent maps.


METAR-TAF: